Wind_Speed
18 17 17 16 16 17 18 17 18 17 17 16 14 13 12 11 10 9 8 8 8 8 9 10 11 11 12 14 15 16 17 18 20 22 23 24 26 28 30 32 33 34 35 36
17 18 17 17 17 17 18 19 20 19 17 16 16 15 14 12 11 10 10 10 10 11 11 12 13 15 15 16 17 18 19 21 23 24 25 27 29 30 32 34 35 36 37 38
18 18 18 17 17 18 21 22 21 20 18 17 16 15 14 14 12 11 11 11 11 13 14 14 16 18 17 18 20 21 22 24 25 26 28 29 31 32 34 36 37 38 38 39
19 19 19 16 18 19 21 22 22 22 21 19 17 16 15 14 13 13 12 12 13 14 16 17 18 19 19 20 22 23 25 26 27 28 30 31 33 34 36 37 38 39 39 40
21 20 18 18 19 20 22 23 24 24 23 21 20 19 17 15 14 14 14 15 16 17 18 20 21 21 22 22 24 25 27 28 29 30 32 33 35 36 37 39 40 41 41 41
22 22 21 19 19 21 23 25 24 25 25 24 23 22 19 17 16 16 17 18 19 20 21 22 22 23 24 26 27 28 29 31 32 33 34 35 36 38 39 40 42 42 42 42
22 23 21 19 19 20 23 24 24 24 25 25 25 22 21 20 19 20 21 21 21 23 24 24 25 26 27 29 30 31 32 33 34 35 37 38 39 40 41 42 43 43 43 44
22 23 21 19 19 20 22 24 25 25 25 24 24 24 23 22 23 24 23 23 24 24 26 27 27 28 29 30 32 33 34 35 36 38 39 40 41 42 42 43 43 43 44 44
23 23 21 20 21 22 22 24 24 24 23 23 23 23 23 24 23 24 25 26 26 27 28 29 30 31 32 33 34 35 36 37 38 40 41 42 43 44 44 45 44 44 45 45
24 24 24 23 21 21 23 23 23 23 23 24 23 23 23 23 24 26 27 29 29 30 30 31 32 33 35 36 37 38 38 40 41 42 42 43 44 45 46 46 45 46 46 46
26 26 26 24 23 23 23 22 22 23 23 23 23 23 23 24 26 28 29 30 31 32 33 34 35 36 37 38 39 40 41 42 42 43 44 45 46 46 47 47 47 47 48 48
27 27 26 25 24 23 22 23 23 23 23 23 23 24 25 26 27 29 30 32 33 34 35 36 37 38 39 40 40 41 42 43 44 45 46 47 48 48 48 49 49 49 49 49
26 27 27 26 26 25 24 24 24 23 23 23 24 25 27 28 29 31 32 34 35 36 37 38 39 40 40 41 42 43 44 46 46 47 48 49 49 50 50 50 51 51 51 51
25 26 26 27 27 27 27 26 26 25 24 25 26 27 29 30 31 32 34 35 36 37 38 39 40 41 43 43 45 45 46 47 48 49 50 51 51 52 53 53 52 51 51 50
25 26 26 26 26 27 27 27 27 26 27 28 29 30 31 32 33 34 35 37 38 39 40 41 42 43 45 45 46 47 48 50 51 52 52 53 53 54 54 54 53 52 51 49
25 25 25 25 25 26 27 28 29 29 29 30 31 32 33 34 35 36 37 38 39 40 41 42 44 45 46 47 48 49 50 52 52 53 54 54 55 55 55 54 54 52 51 48
25 25 25 25 25 27 28 29 30 31 32 33 34 34 35 36 37 38 39 40 41 42 43 44 46 47 48 49 50 51 52 53 54 54 55 55 56 55 55 54 53 51 48 46
25 25 25 26 27 28 29 30 31 33 34 35 36 37 38 38 39 40 41 42 44 45 46 47 48 49 51 51 52 53 53 54 55 56 56 56 56 55 54 53 50 48 45 43
25 25 25 26 28 29 30 32 34 35 36 37 38 39 40 41 42 43 44 45 46 47 48 49 50 51 52 53 53 54 55 56 56 57 56 56 55 53 52 49 47 44 41 39
27 28 28 28 30 32 33 35 36 38 39 40 41 42 43 44 45 46 47 48 49 50 51 51 52 53 53 54 54 55 56 56 56 55 54 53 51 49 47 44 42 40 37 35
30 30 31 32 33 35 36 38 39 40 42 43 44 45 46 47 48 49 49 50 50 51 52 52 53 53 54 54 54 55 55 54 53 52 50 48 46 43 41 39 37 35 32 30
33 35 36 37 38 39 40 42 43 44 45 46 46 47 48 49 50 50 51 51 51 51 52 52 52 52 52 52 52 51 51 50 49 47 45 42 39 37 34 32 30 29 27 25
38 39 40 41 42 43 44 45 45 46 47 48 49 49 49 50 50 51 50 50 50 50 50 50 50 49 49 48 48 47 46 45 44 41 39 36 34 31 29 28 26 24 22 21
42 43 43 44 45 46 46 47 47 47 48 48 48 48 49 49 49 48 48 48 48 47 47 46 46 46 45 45 44 43 42 41 39 37 35 32 30 27 25 23 21 20 19 18
43 44 45 45 46 46 47 47 47 47 46 46 46 46 46 46 46 45 45 44 44 43 43 43 43 42 42 41 41 40 38 37 35 33 31 27 25 23 21 19 18 16 15 14
44 45 45 46 46 46 46 45 45 44 44 43 43 43 42 42 41 41 41 41 40 40 40 40 39 39 38 38 37 35 34 32 30 27 24 21 20 18 16 15 14 13 12 11
44 45 45 44 44 44 43 43 42 42 42 41 40 40 40 39 38 38 38 38 38 36 36 35 35 35 34 34 32 30 28 26 23 21 19 17 15 14 13 12 11 10 9 8
Wind_Direction
274 270 267 260 256 255 256 261 266 269 271 277 279 283 287 292 296 298 303 306 308 304 298 296 296 296 296 296 298 299 303 307 310 310 310 311 313 315 317 318 319 319 319 319
273 266 262 257 252 248 249 254 261 264 267 272 276 278 282 286 289 292 299 302 301 296 292 292 294 294 293 294 297 300 302 304 306 308 309 310 312 314 315 316 316 317 317 319
266 260 258 257 253 250 248 249 256 261 264 267 271 272 274 278 280 285 290 293 291 291 290 291 291 292 289 292 294 297 299 301 303 305 308 309 311 312 313 314 315 315 315 317
264 264 261 259 254 254 253 254 256 260 262 263 265 269 270 273 277 279 282 284 286 288 288 288 288 288 289 291 293 294 297 300 302 304 306 307 309 311 312 314 315 315 315 316
269 266 263 256 252 255 257 257 258 260 258 258 262 265 266 266 270 279 281 283 282 284 284 283 285 287 289 290 291 293 296 299 301 303 304 305 307 309 310 312 314 315 315 316
267 266 266 261 257 256 258 261 263 263 261 262 261 262 263 267 274 281 282 283 284 285 280 279 283 287 289 290 291 293 296 298 299 301 302 304 306 308 310 312 313 314 315 315
270 271 272 266 261 259 261 267 270 270 267 264 263 262 265 268 273 276 279 282 285 286 285 285 287 288 289 290 291 293 295 297 298 300 302 304 306 308 309 311 312 313 313 314
274 274 271 272 271 270 270 270 272 271 269 268 265 265 265 270 274 276 280 285 287 287 287 288 288 288 288 289 290 291 293 295 297 299 301 303 305 307 309 310 311 311 312 313
278 277 278 281 280 278 279 280 278 276 276 275 272 270 271 275 278 279 282 286 285 285 286 287 287 287 288 289 290 291 293 295 297 299 301 303 304 306 307 309 309 309 311 311
277 281 284 285 281 281 278 278 279 281 283 283 279 274 274 278 284 284 284 285 284 285 286 287 288 289 288 289 292 293 294 295 296 298 299 301 303 305 305 307 308 308 309 309
279 284 286 283 282 284 283 282 284 286 285 284 281 280 281 283 284 285 285 285 287 288 287 287 288 289 289 291 292 293 293 294 295 297 299 301 302 303 304 305 306 306 307 307
279 281 283 284 287 288 286 284 284 283 283 284 283 283 282 283 284 285 285 285 286 287 287 288 288 289 290 291 292 292 293 294 295 296 297 299 300 301 302 303 304 304 305 305
278 281 283 284 286 288 289 287 285 285 286 288 286 284 283 283 284 284 284 285 286 286 287 288 288 289 290 290 291 292 293 294 294 296 297 297 299 300 300 301 302 303 303 303
274 277 279 282 285 288 288 287 287 288 289 290 288 287 286 286 286 285 285 285 286 286 287 287 288 288 289 290 291 291 292 293 294 295 296 297 298 299 299 300 300 301 301 301
270 273 277 279 282 286 287 287 288 289 290 290 289 289 288 288 288 287 287 287 287 287 288 288 288 289 290 291 291 292 293 294 294 295 296 297 297 298 299 299 299 300 299 298
272 275 280 283 284 286 287 286 288 289 289 289 288 289 289 289 289 288 288 288 288 288 288 289 290 290 291 292 292 293 293 294 294 295 296 296 297 297 298 298 298 298 297 296
276 279 281 282 283 285 287 288 288 288 288 289 289 289 289 289 288 289 289 289 289 290 290 291 291 292 292 293 293 293 294 294 295 295 296 296 296 296 296 296 296 295 294 293
280 281 282 282 282 284 287 288 288 289 290 290 291 291 291 291 291 291 291 291 291 291 292 292 292 293 293 294 294 294 294 294 295 295 295 295 295 295 295 295 294 293 291 289
286 287 287 284 285 287 288 289 289 290 291 291 292 292 293 293 293 293 293 293 293 293 293 293 294 294 294 294 294 294 294 294 295 295 295 295 295 294 294 294 292 290 289 286
291 289 288 289 288 288 289 289 290 290 291 292 292 293 293 293 294 294 294 294 294 294 294 294 294 294 294 294 294 295 295 295 295 295 295 295 294 294 293 291 290 288 286 284
288 286 285 286 286 287 288 289 290 291 291 292 293 293 294 294 294 295 295 295 295 294 294 294 294 295 295 295 295 296 296 296 296 296 295 295 294 293 292 291 289 286 283 281
283 284 285 286 287 287 288 290 291 292 292 293 294 294 295 295 295 296 296 296 296 296 296 295 295 296 296 296 296 297 297 297 297 297 296 295 293 291 289 288 287 284 279 277
284 285 286 287 287 288 290 291 292 293 293 294 294 295 295 296 296 296 296 296 296 296 296 296 296 297 297 297 297 298 298 298 298 297 296 294 292 289 286 284 283 281 275 274
285 286 287 288 289 290 292 293 293 294 294 295 295 296 296 296 296 296 296 296 296 297 297 298 298 298 298 298 298 298 299 299 298 296 295 293 289 286 283 281 279 275 271 270
285 287 288 289 290 291 292 293 293 294 294 295 295 295 296 296 296 296 296 297 298 298 299 299 299 299 300 300 300 300 300 300 299 297 295 289 285 282 280 278 274 270 268 265
287 288 289 291 291 292 293 293 293 293 294 294 294 295 296 297 297 298 299 300 300 300 301 301 301 302 303 303 302 302 302 301 300 299 294 287 281 279 276 270 264 264 262 256
290 291 291 292 292 293 293 293 294 294 294 295 295 296 297 298 298 299 300 301 301 301 302 303 304 305 305 305 304 304 304 304 303 300 294 286 280 275 265 258 254 255 253 247
Height
5845 5845 5845 5845 5846 5845 5845 5844 5844 5845 5844 5845 5845 5845 5845 5845 5845 5845 5845 5844 5844 5843 5843 5843 5843 5842 5841 5840 5839 5838 5836 5834 5831 5829 5826 5823 5819 5816 5812 5808 5804 5799 5794 5789
5840 5840 5839 5840 5840 5840 5840 5840 5839 5839 5839 5840 5840 5840 5841 5841 5841 5841 5841 5840 5840 5839 5839 5839 5838 5837 5836 5835 5834 5832 5830 5828 5826 5823 5820 5817 5813 5809 5805 5801 5796 5792 5787 5781
5836 5835 5834 5836 5836 5835 5834 5833 5833 5833 5835 5835 5835 5835 5836 5836 5836 5836 5837 5837 5836 5835 5835 5834 5833 5832 5831 5829 5828 5827 5825 5822 5820 5817 5813 5810 5806 5802 5798 5793 5789 5784 5778 5773
5830 5830 5830 5833 5831 5830 5829 5828 5828 5828 5829 5830 5830 5830 5831 5831 5832 5832 5832 5832 5831 5830 5830 5829 5828 5826 5825 5824 5822 5820 5818 5815 5813 5809 5806 5802 5799 5795 5790 5785 5780 5775 5770 5764
5824 5823 5824 5826 5825 5824 5823 5823 5823 5823 5824 5824 5824 5825 5826 5826 5826 5826 5826 5826 5826 5825 5824 5823 5821 5820 5819 5817 5815 5813 5811 5808 5805 5802 5798 5794 5790 5786 5781 5776 5771 5766 5761 5755
5817 5817 5818 5821 5820 5819 5820 5818 5818 5818 5818 5818 5818 5819 5820 5820 5821 5821 5820 5820 5820 5819 5818 5816 5815 5813 5812 5810 5808 5806 5803 5800 5797 5793 5790 5785 5781 5777 5772 5767 5762 5756 5751 5745
5810 5811 5812 5813 5814 5814 5815 5815 5813 5813 5813 5813 5813 5813 5814 5814 5814 5814 5813 5813 5813 5812 5810 5809 5808 5806 5804 5802 5800 5798 5795 5792 5788 5784 5780 5776 5772 5767 5762 5757 5752 5746 5741 5734
5804 5805 5808 5807 5807 5808 5808 5807 5807 5806 5806 5806 5806 5806 5807 5807 5807 5807 5806 5806 5805 5804 5803 5801 5800 5798 5796 5794 5791 5789 5786 5782 5778 5774 5770 5766 5761 5756 5751 5746 5741 5735 5730 5724
5799 5800 5800 5799 5800 5800 5800 5799 5799 5799 5799 5799 5799 5798 5799 5799 5799 5799 5799 5798 5797 5796 5795 5793 5791 5789 5787 5785 5782 5779 5775 5772 5768 5764 5759 5755 5751 5746 5740 5735 5730 5724 5719 5713
5792 5792 5792 5792 5791 5792 5792 5792 5792 5791 5792 5792 5791 5791 5791 5791 5791 5791 5791 5790 5788 5787 5785 5784 5782 5779 5777 5774 5771 5768 5764 5761 5756 5753 5748 5744 5739 5734 5729 5724 5718 5713 5707 5701
5785 5785 5785 5785 5785 5785 5785 5785 5785 5785 5784 5784 5784 5784 5784 5784 5783 5783 5782 5781 5779 5777 5776 5774 5772 5769 5766 5763 5760 5757 5753 5749 5745 5741 5736 5732 5727 5722 5717 5712 5706 5701 5695 5689
5779 5779 5779 5778 5778 5778 5778 5778 5778 5778 5777 5777 5776 5776 5776 5775 5775 5774 5773 5771 5769 5767 5765 5763 5761 5758 5755 5752 5748 5745 5741 5737 5733 5728 5724 5719 5715 5710 5704 5699 5694 5688 5682 5676
5772 5772 5772 5771 5771 5771 5770 5771 5770 5770 5770 5769 5769 5769 5768 5767 5766 5764 5763 5761 5759 5757 5754 5752 5749 5746 5743 5740 5736 5732 5728 5724 5720 5716 5711 5706 5701 5696 5692 5687 5680 5674 5669 5663
5765 5765 5764 5763 5763 5763 5763 5763 5763 5762 5762 5762 5761 5760 5759 5757 5756 5754 5752 5750 5748 5746 5743 5740 5737 5734 5731 5727 5723 5719 5715 5711 5706 5702 5697 5692 5687 5682 5677 5672 5667 5661 5655 5649
5758 5758 5757 5756 5755 5755 5755 5755 5755 5754 5754 5753 5752 5750 5749 5747 5745 5743 5741 5739 5736 5734 5731 5728 5725 5721 5717 5714 5710 5705 5701 5697 5692 5687 5682 5677 5672 5667 5662 5656 5651 5646 5641 5636
5750 5750 5750 5749 5748 5748 5747 5747 5746 5746 5745 5743 5742 5740 5738 5736 5734 5732 5730 5727 5724 5721 5718 5715 5711 5707 5703 5699 5695 5691 5686 5681 5676 5672 5667 5662 5656 5651 5646 5641 5636 5631 5626 5622
5742 5742 5741 5741 5741 5740 5739 5738 5737 5736 5734 5733 5731 5730 5728 5725 5723 5720 5717 5714 5711 5708 5705 5701 5697 5693 5689 5685 5680 5675 5670 5665 5660 5656 5650 5645 5640 5635 5630 5624 5620 5615 5611 5607
5735 5734 5733 5733 5733 5732 5730 5729 5727 5725 5723 5722 5720 5718 5715 5713 5710 5707 5704 5701 5698 5694 5690 5686 5682 5678 5673 5669 5664 5659 5654 5649 5644 5639 5634 5629 5623 5618 5613 5608 5604 5600 5596 5593
5726 5726 5725 5724 5723 5722 5721 5719 5717 5715 5713 5710 5708 5705 5703 5700 5697 5694 5690 5687 5683 5679 5675 5671 5666 5662 5657 5652 5647 5642 5637 5632 5627 5621 5616 5611 5606 5601 5596 5592 5588 5585 5582 5580
5719 5718 5717 5715 5714 5712 5710 5708 5706 5704 5701 5699 5696 5693 5690 5687 5683 5680 5676 5672 5668 5663 5659 5655 5650 5645 5640 5635 5630 5625 5620 5615 5609 5604 5599 5594 5589 5585 5581 5577 5574 5571 5569 5567
5710 5709 5707 5706 5704 5702 5699 5697 5694 5692 5689 5686 5683 5679 5676 5672 5669 5665 5661 5657 5652 5648 5643 5638 5633 5628 5623 5618 5613 5607 5602 5597 5592 5587 5582 5578 5573 5570 5566 5563 5560 5558 5557 5555
5699 5698 5696 5694 5692 5690 5687 5684 5681 5678 5675 5672 5668 5665 5661 5657 5653 5649 5645 5640 5636 5631 5626 5621 5616 5611 5606 5601 5596 5591 5585 5580 5575 5571 5566 5562 5559 5556 5554 5551 5549 5548 5547 5546
5688 5686 5684 5682 5679 5677 5674 5671 5668 5664 5661 5657 5654 5650 5646 5642 5637 5633 5629 5624 5620 5615 5610 5605 5600 5595 5590 5585 5580 5575 5570 5565 5561 5556 5552 5549 5546 5544 5542 5541 5540 5538 5538 5538
5675 5673 5671 5668 5666 5663 5660 5657 5653 5650 5646 5643 5639 5635 5631 5627 5622 5617 5613 5609 5604 5600 5595 5590 5585 5580 5575 5571 5566 5561 5557 5552 5548 5544 5540 5538 5535 5533 5532 5531 5531 5530 5530 5531
5663 5661 5658 5655 5652 5649 5646 5642 5639 5635 5632 5628 5624 5620 5616 5611 5607 5603 5599 5595 5590 5586 5581 5576 5571 5566 5562 5557 5553 5548 5544 5540 5536 5532 5529 5527 5525 5524 5524 5524 5523 5524 5524 5525
5650 5647 5644 5641 5638 5635 5632 5628 5625 5621 5618 5614 5610 5606 5602 5598 5594 5589 5585 5581 5577 5573 5568 5564 5559 5555 5550 5545 5541 5537 5533 5529 5525 5522 5520 5518 5517 5517 5517 5517 5518 5518 5519 5520
5637 5634 5631 5628 5624 5621 5618 5614 5611 5607 5604 5600 5597 5593 5589 5586 5582 5578 5574 5570 5566 5562 5557 5553 5549 5544 5540 5535 5531 5527 5524 5520 5517 5515 5513 5512 5511 5511 5511 5512 5512 5514 5515 5516